• In Russia
  • List of Countries
  • For 7 days
  • Water Temperature
  • Satellite Maps
  • Weather Map
  • Weather Widgets
  • user-avatar
    Login

    Hourly Weather Lowech

    Today, 24 March, Sunday

    Time Temperature Precipitation Wind Pressure Humidity
    00:00 +10°C° 0 mm 3 mps 741 mmHg 59%
    01:00 +9°C° 0 mm 3 mps 741 mmHg 59%
    02:00 +8°C° 0 mm 3 mps 741 mmHg 60%
    03:00 +8°C° 0 mm 3 mps 741 mmHg 62%
    04:00 +7°C° 0 mm 2 mps 741 mmHg 65%
    05:00 +7°C° 0 mm 2 mps 741 mmHg 67%
    06:00 +8°C° 0 mm 1 mps 741 mmHg 64%
    07:00 +9°C° 0 mm 1 mps 741 mmHg 61%
    08:00 +10°C° 0 mm 1 mps 741 mmHg 58%
    09:00 +11°C° 0 mm 1 mps 741 mmHg 51%
    10:00 +13°C° 0 mm 1 mps 741 mmHg 45%
    11:00 +14°C° 0 mm 1 mps 741 mmHg 38%
    12:00 +15°C° 0 mm 1 mps 740 mmHg 37%
    13:00 +15°C° 0 mm 1 mps 740 mmHg 35%
    14:00 +16°C° 0 mm 1 mps 739 mmHg 34%
    15:00 +16°C° 0 mm 1 mps 739 mmHg 35%
    16:00 +16°C° 0 mm 1 mps 739 mmHg 35%
    17:00 +16°C° 0 mm 1 mps 738 mmHg 36%
    18:00 +14°C° 0 mm 1 mps 738 mmHg 40%
    19:00 +13°C° 0 mm 1 mps 738 mmHg 44%
    20:00 +12°C° 0 mm 1 mps 738 mmHg 48%
    21:00 +11°C° 0 mm 1 mps 738 mmHg 50%
    22:00 +11°C° 0 mm 1 mps 738 mmHg 51%
    23:00 +9°C° 0 mm 2 mps 738 mmHg 53%

    Tomorrow, 25 March, Monday

    Time Temperature Precipitation Wind Pressure Humidity
    00:00 +9°C° 0 mm 2 mps 738 mmHg 54%
    01:00 +9°C° 0 mm 2 mps 738 mmHg 56%
    02:00 +8°C° 0 mm 2 mps 738 mmHg 57%
    03:00 +8°C° 0 mm 2 mps 737 mmHg 58%
    04:00 +8°C° 0 mm 2 mps 737 mmHg 59%
    05:00 +8°C° 0 mm 2 mps 736 mmHg 60%
    06:00 +9°C° 0 mm 2 mps 736 mmHg 58%
    07:00 +9°C° 0 mm 2 mps 736 mmHg 56%
    08:00 +10°C° 0 mm 2 mps 736 mmHg 55%
    09:00 +14°C° 0 mm 2 mps 736 mmHg 47%
    10:00 +16°C° 0 mm 1 mps 735 mmHg 39%
    11:00 +19°C° 0 mm 1 mps 735 mmHg 31%
    12:00 +19°C° 0 mm 2 mps 734 mmHg 29%
    13:00 +20°C° 0 mm 2 mps 734 mmHg 28%
    14:00 +21°C° 0 mm 2 mps 733 mmHg 26%
    15:00 +21°C° 0 mm 2 mps 732 mmHg 28%
    16:00 +20°C° 0 mm 2 mps 732 mmHg 29%
    17:00 +21°C° 0 mm 1 mps 731 mmHg 31%
    18:00 +19°C° 0 mm 1 mps 731 mmHg 35%
    19:00 +16°C° 0 mm 1 mps 731 mmHg 40%
    20:00 +14°C° 0 mm 1 mps 731 mmHg 44%
    21:00 +14°C° 0 mm 2 mps 731 mmHg 46%
    22:00 +13°C° 0 mm 2 mps 731 mmHg 48%
    23:00 +13°C° 0 mm 2 mps 731 mmHg 51%

    Day after tomorrow, 26 March, Tuesday

    Time Temperature Precipitation Wind Pressure Humidity
    00:00 +12°C° 0 mm 2 mps 731 mmHg 52%
    01:00 +12°C° 0 mm 2 mps 731 mmHg 53%
    02:00 +12°C° 0 mm 2 mps 731 mmHg 55%
    03:00 +10°C° 0 mm 2 mps 731 mmHg 56%
    04:00 +10°C° 0 mm 2 mps 732 mmHg 57%
    05:00 +10°C° 0 mm 2 mps 732 mmHg 58%
    06:00 +10°C° 0 mm 3 mps 732 mmHg 61%
    07:00 +10°C° 0 mm 4 mps 733 mmHg 64%
    08:00 +9°C° 0 mm 5 mps 733 mmHg 67%
    09:00 +10°C° 0.1 mm 5 mps 733 mmHg 66%
    10:00 +10°C° 0.1 mm 5 mps 734 mmHg 64%
    11:00 +12°C° 0.1 mm 5 mps 734 mmHg 63%
    12:00 +10°C° 0.3 mm 5 mps 734 mmHg 65%
    13:00 +9°C° 0.3 mm 5 mps 734 mmHg 68%
    14:00 +8°C° 0.3 mm 5 mps 734 mmHg 70%
    15:00 +8°C° 0.7 mm 5 mps 735 mmHg 73%
    16:00 +7°C° 0.7 mm 4 mps 735 mmHg 76%
    17:00 +8°C° 0.7 mm 3 mps 736 mmHg 78%
    18:00 +8°C° 0.5 mm 2 mps 736 mmHg 81%
    19:00 +9°C° 0.5 mm 1 mps 737 mmHg 83%
    20:00 +8°C° 0.5 mm 1 mps 738 mmHg 85%
    21:00 +8°C° 0.1 mm 1 mps 738 mmHg 87%
    22:00 +8°C° 0.1 mm 1 mps 738 mmHg 89%
    23:00 +8°C° 0.1 mm 1 mps 739 mmHg 91%

    27 March, Wednesday

    Time Temperature Precipitation Wind Pressure Humidity
    00:00 +8°C° 0.1 mm 1 mps 739 mmHg 91%
    01:00 +7°C° 0.1 mm 1 mps 739 mmHg 92%
    02:00 +7°C° 0.1 mm 1 mps 740 mmHg 92%
    03:00 +7°C° 0 mm 1 mps 740 mmHg 93%
    04:00 +7°C° 0 mm 1 mps 740 mmHg 93%
    05:00 +7°C° 0 mm 1 mps 740 mmHg 94%
    06:00 +7°C° 0 mm 1 mps 740 mmHg 91%
    07:00 +7°C° 0 mm 1 mps 741 mmHg 89%
    08:00 +7°C° 0 mm 1 mps 741 mmHg 86%
    09:00 +7°C° 0 mm 2 mps 742 mmHg 79%
    10:00 +9°C° 0 mm 2 mps 742 mmHg 71%
    11:00 +10°C° 0 mm 3 mps 742 mmHg 63%
    12:00 +10°C° 0 mm 3 mps 742 mmHg 60%
    13:00 +11°C° 0 mm 3 mps 742 mmHg 57%
    14:00 +12°C° 0 mm 3 mps 742 mmHg 53%
    15:00 +12°C° 0.1 mm 3 mps 742 mmHg 54%
    16:00 +11°C° 0.1 mm 3 mps 742 mmHg 55%
    17:00 +11°C° 0.1 mm 3 mps 741 mmHg 55%
    18:00 +10°C° 0.1 mm 2 mps 742 mmHg 59%
    19:00 +10°C° 0.1 mm 2 mps 742 mmHg 63%
    20:00 +9°C° 0.1 mm 2 mps 743 mmHg 68%
    21:00 +9°C° 0.1 mm 2 mps 743 mmHg 69%
    22:00 +8°C° 0.1 mm 2 mps 743 mmHg 71%
    23:00 +8°C° 0.1 mm 2 mps 744 mmHg 72%

    28 March, Thursday

    Time Temperature Precipitation Wind Pressure Humidity
    00:00 +7°C° 0 mm 2 mps 744 mmHg 73%
    01:00 +7°C° 0 mm 2 mps 744 mmHg 73%
    02:00 +6°C° 0 mm 2 mps 744 mmHg 73%
    03:00 +6°C° 0 mm 2 mps 745 mmHg 73%
    04:00 +5°C° 0 mm 2 mps 745 mmHg 73%
    05:00 +5°C° 0 mm 2 mps 745 mmHg 73%
    06:00 +5°C° 0 mm 2 mps 745 mmHg 70%
    07:00 +6°C° 0 mm 2 mps 745 mmHg 68%
    08:00 +6°C° 0 mm 2 mps 746 mmHg 66%
    09:00 +8°C° 0 mm 3 mps 746 mmHg 60%
    10:00 +9°C° 0 mm 3 mps 746 mmHg 55%
    11:00 +10°C° 0 mm 4 mps 746 mmHg 49%
    12:00 +11°C° 0 mm 4 mps 746 mmHg 48%
    13:00 +11°C° 0 mm 4 mps 745 mmHg 46%
    14:00 +11°C° 0 mm 4 mps 745 mmHg 45%
    15:00 +11°C° 0 mm 4 mps 745 mmHg 45%
    16:00 +10°C° 0 mm 4 mps 744 mmHg 45%
    17:00 +10°C° 0 mm 4 mps 744 mmHg 45%
    18:00 +8°C° 0 mm 4 mps 744 mmHg 48%
    19:00 +7°C° 0 mm 3 mps 745 mmHg 51%
    20:00 +6°C° 0 mm 2 mps 745 mmHg 54%
    21:00 +5°C° 0 mm 2 mps 745 mmHg 54%
    22:00 +4°C° 0 mm 2 mps 745 mmHg 54%
    23:00 +5°C° 0 mm 1 mps 746 mmHg 54%

    29 March, Friday

    Time Temperature Precipitation Wind Pressure Humidity
    00:00 +4°C° 0 mm 1 mps 746 mmHg 57%
    01:00 +4°C° 0 mm 1 mps 746 mmHg 60%
    02:00 +4°C° 0 mm 1 mps 746 mmHg 63%
    03:00 +3°C° 0 mm 1 mps 746 mmHg 62%
    04:00 +3°C° 0 mm 1 mps 745 mmHg 60%
    05:00 +2°C° 0 mm 1 mps 745 mmHg 59%
    06:00 +2°C° 0 mm 2 mps 746 mmHg 54%
    07:00 +3°C° 0 mm 2 mps 746 mmHg 50%
    08:00 +3°C° 0 mm 3 mps 746 mmHg 45%
    09:00 +4°C° 0 mm 3 mps 746 mmHg 43%
    10:00 +5°C° 0 mm 3 mps 745 mmHg 42%
    11:00 +6°C° 0 mm 4 mps 745 mmHg 40%
    12:00 +7°C° 0 mm 4 mps 745 mmHg 39%
    13:00 +7°C° 0 mm 4 mps 744 mmHg 39%
    14:00 +9°C° 0 mm 3 mps 744 mmHg 38%
    15:00 +9°C° 0 mm 3 mps 743 mmHg 38%
    16:00 +9°C° 0 mm 3 mps 743 mmHg 39%
    17:00 +9°C° 0 mm 2 mps 743 mmHg 39%
    18:00 +7°C° 0 mm 2 mps 743 mmHg 43%
    19:00 +7°C° 0 mm 1 mps 743 mmHg 48%
    20:00 +6°C° 0 mm 1 mps 743 mmHg 52%
    21:00 +5°C° 0 mm 1 mps 743 mmHg 52%
    22:00 +5°C° 0 mm 1 mps 743 mmHg 53%
    23:00 +4°C° 0 mm 1 mps 743 mmHg 53%
    Show more